Back to catalog

NOAA 16 DEB

AlivePO
NORAD 41403·DEBRIS·🇺🇸 United States

Launched Sep 21, 2000 from Vandenberg Space Force Base

Loading…

Next Passes (next 24 hours)

TLE

FreshSource: Space-Track

Epoch: Sep 13, 2026, 07:35 UTC

1 41403U 00055KG  26256.31650531  .00004891  00000-0  11667-2 0  9992
2 41403  98.9315  76.4310 0016894 214.9028 145.1060 14.54121454551845

Track NOAA 16 DEB in real time with AllMySat

Download on the App Store